DW9004 Weather Reports


Display with metric or nautical units.
time (UTC)temp
F
wind
direction
speed
MPH
gust
MPH
rain 1hr
in
rain 24hr
in
rain mn
in
humidity
%
barometer
mb
20260901144521 60 71 0.0 2.0 0.00 0.00 0.00 68 1002.1
20260901143021 60 122 1.0 2.0 0.00 0.00 0.00 66 1002.1
20260901141519 59 279 0.0 1.0 0.00 0.00 0.00 68 1001.8
20260901140014 0 0.0 0.0 0.00 0.00 0.00 1001.8
20260901134515 0 0.0 0.0 0.00 0.00 0.00 1001.8
20260901133007 0 0.0 0.0 0.00 0.00 0.00 1001.6
20260901131502 0 0.0 0.0 0.00 0.00 0.00 1001.6
20260901130058 0 0.0 0.0 0.00 0.00 0.00 1001.5
20260901124542 0 0.0 0.0 0.00 0.00 0.00 1001.6
20260901123047 0 0.0 0.0 0.00 0.00 0.00 1001.6
20260901121539 0 0.0 0.0 0.00 0.00 0.00 1001.7
20260901120044 61 88 0.0 2.0 0.00 0.00 0.00 57 1001.6
20260901114541 61 113 1.0 3.0 0.00 0.00 0.00 58 1001.6
20260901113035 61 245 0.0 2.0 0.00 0.00 0.00 57 1001.5
20260901111531 60 251 0.0 2.0 0.00 0.00 0.00 60 1001.4
20260901110030 60 98 1.0 3.0 0.00 0.00 0.00 60 1001.4
20260901104527 62 163 0.0 6.0 0.00 0.00 0.00 57 1001.4
20260901103027 62 297 2.0 5.0 0.00 0.00 0.00 58 1001.7
20260901101513 63 88 0.0 4.0 0.00 0.00 0.00 53 1001.9
20260901100015 63 19 0.0 3.0 0.00 0.00 0.00 53 1001.7
20260901094514 63 133 1.0 3.0 0.00 0.00 0.00 54 1001.6
20260901093011 65 202 1.0 4.0 0.00 0.00 0.00 50 1001.6
20260901091510 67 270 7.0 16.0 0.00 0.00 0.00 46 1001.5
20260901090013 67 110 1.0 9.0 0.00 0.00 0.00 48 1001.5
20260901083008 71 265 7.0 13.0 0.00 0.00 0.00 36 1001.7
20260901081548 71 273 3.0 16.0 0.00 0.00 0.00 35 1001.8
20260901080047 72 244 7.0 16.0 0.00 0.00 0.00 36 1001.9
20260901074534 70 256 10.0 19.0 0.00 0.00 0.00 42 1001.9
20260901073033 65 130 0.0 3.0 0.00 0.00 0.00 51 1002.1
20260901071532 66 147 1.0 5.0 0.00 0.00 0.00 49 1002.0
20260901070030 64 231 1.0 7.0 0.00 0.00 0.00 53 1001.9
20260901064528 64 346 1.0 3.0 0.00 0.00 0.00 50 1002.2
20260901063033 64 114 0.0 3.0 0.00 0.00 0.00 49 1002.2
20260901061523 65 276 0.0 2.0 0.00 0.00 0.00 49 1002.3
20260901060021 66 275 0.0 2.0 0.00 0.00 0.00 47 1002.3
20260901054509 66 277 0.0 2.0 0.00 0.00 0.00 47 1002.3
20260901053006 66 284 0.0 4.0 0.00 0.00 0.00 47 1002.4
20260901051504 67 108 0.0 2.0 0.00 0.00 0.00 45 1002.5
20260901050003 67 213 2.0 3.0 0.00 0.00 0.00 45 1002.4
20260901044606 68 217 2.0 4.0 0.00 0.00 0.00 43 1002.4
20260901043059 73 257 1.0 5.0 0.00 0.00 0.00 37 1002.3
20260901041554 73 261 3.0 5.0 0.00 0.00 0.00 34 1002.3
20260901040052 74 256 3.0 6.0 0.00 0.00 0.00 32 1002.4
20260901034537 76 255 1.0 3.0 0.00 0.00 0.00 31 1002.4
20260901033037 75 253 2.0 3.0 0.00 0.00 0.00 31 1002.4
20260901031534 77 252 1.0 3.0 0.00 0.00 0.00 30 1002.4
20260901030032 77 256 2.0 5.0 0.00 0.00 0.00 29 1002.4
20260901024532 78 249 3.0 6.0 0.00 0.00 0.00 29 1002.4
20260901021525 80 289 0.0 2.0 0.00 0.00 0.00 28 1002.4
20260901020023 81 334 1.0 3.0 0.00 0.00 0.00 26 1002.5
20260901014520 82 348 0.0 3.0 0.00 0.00 0.00 25 1002.6
20260901013008 83 359 1.0 8.0 0.00 0.00 0.00 25 1002.7
20260901011506 83 45 3.0 7.0 0.00 0.00 0.00 25 1002.9
20260901010005 83 17 5.0 11.0 0.00 0.00 0.00 25 1003.0
20260901004502 83 42 5.0 11.0 0.00 0.00 0.00 25 1003.2
20260901003100 83 52 5.0 11.0 0.00 0.00 0.00 26 1003.4
20260901001559 83 360 6.0 11.0 0.00 0.00 0.00 25 1003.6
20260901000112 83 57 10.0 14.0 0.00 0.00 0.00 24 1003.9
20260831234558 83 36 5.0 14.0 0.00 0.00 0.00 26 1004.1
20260831233039 83 24 8.0 11.0 0.00 0.00 0.00 26 1004.3
20260831231548 82 81 8.0 13.0 0.00 0.00 0.00 26 1004.6
20260831230038 82 74 6.0 11.0 0.00 0.00 0.00 26 1004.8
20260831224530 81 52 6.0 12.0 0.00 0.00 0.00 28 1005.1
20260831223027 81 38 4.0 10.0 0.00 0.00 0.00 26 1005.2
20260831221523 81 42 6.0 11.0 0.00 0.00 0.00 26 1005.5
20260831220018 80 36 11.0 15.0 0.00 0.00 0.00 27 1005.9
20260831214513 80 64 9.0 12.0 0.00 0.00 0.00 27 1006.2
20260831213101 79 52 9.0 14.0 0.00 0.00 0.00 28 1006.4
20260831211554 79 83 5.0 12.0 0.00 0.00 0.00 30 1006.6
20260831210049 78 42 7.0 11.0 0.00 0.00 0.00 30 1006.9
20260831204545 77 42 8.0 14.0 0.00 0.00 0.00 31 1007.0
20260831203041 77 69 11.0 15.0 0.00 0.00 0.00 31 1007.2
20260831201536 77 93 4.0 14.0 0.00 0.00 0.00 33 1007.6
20260831200035 76 73 9.0 12.0 0.00 0.00 0.00 31 1007.9
20260831194546 75 43 9.0 15.0 0.00 0.00 0.00 33 1008.1
20260831193010 75 70 10.0 14.0 0.00 0.00 0.00 35 1008.4
20260831191605 74 15 11.0 14.0 0.00 0.00 0.00 33 1008.7
20260831190002 74 74 7.0 12.0 0.00 0.00 0.00 35 1009.0
20260831184605 74 74 9.0 12.0 0.00 0.00 0.00 36 1009.2
20260831183059 73 36 10.0 13.0 0.00 0.00 0.00 38 1009.4
20260831181551 72 50 9.0 13.0 0.00 0.00 0.00 39 1009.6
20260831180044 70 161 4.0 9.0 0.00 0.00 0.00 47 1009.7
20260831174541 69 82 0.0 6.0 0.00 0.00 0.00 47 1010.0
20260831173024 68 90 3.0 4.0 0.00 0.00 0.00 50 1010.1
20260831171520 66 45 0.0 4.0 0.00 0.00 0.00 52 1010.4
20260831170017 67 80 3.0 6.0 0.00 0.00 0.00 48 1010.6
20260831164513 65 154 0.0 3.0 0.00 0.00 0.00 52 1010.7
20260831163007 65 67 0.0 3.0 0.00 0.00 0.00 53 1010.8
20260831161503 63 88 1.0 4.0 0.00 0.00 0.00 54 1010.9
20260831160108 63 17 1.0 3.0 0.00 0.00 0.00 54 1011.0
20260831154626 62 78 0.0 2.0 0.00 0.00 0.00 54 1011.1
20260831153051 62 320 0.0 1.0 0.00 0.00 0.00 60 1011.2
20260831151545 58 320 0.0 2.0 0.00 0.00 0.00 67 1011.2
20260831150029 56 321 0.0 1.0 0.00 0.00 0.00 72 1011.2